[[{"header":{"parameterUnit":"m.s-1","parameterCategory":1,"la1":30.2991,"la2":30.254,"lo1":-89.0895,"lo2":-89.0444,"dy":0.0017,"dx":0.0017,"nx":28,"ny":28,"refTime":"2023-10-13T21:00:00:Z","depth":0,"parameterNumber":2,"parameterNumberName":"U-component_of_WINDS"},"data":[0,0,0,0,0,0,0,0,0,0,0,0,0,0,0,0,0,0,0,0,0,0,0,0,0,0,0,0,0,0,0,0,0,0,0,0,0,0,0,0,0,0,0,0,0,0,0,0,0,0,0,0,0,0,0,0,0,0,-0.9967,-0.9966,0,-0.9946,-0.9946,-0.9945,-0.993,-0.993,-0.993,-0.993,-0.9906,-0.9906,-0.9905,0,0,0,0,0,0,0,0,0,0,0,0,0,-0.9991,-0.9991,-0.9967,-0.9966,-0.9966,-0.9946,-0.9946,-0.9945,-0.993,-0.993,-0.993,-0.993,-0.9906,-0.9906,-0.9905,0,0,0,0,0,0,0,0,0,0,0,0,0,-0.9977,-0.9991,-0.9967,-0.9956,-0.9955,-0.9946,-0.9946,-0.9945,-0.9931,-0.993,-0.993,-0.993,-0.9906,-0.9906,-0.9905,-0.9903,0,0,-0.9902,-0.9902,0,0,0,0,0,0,0,0,-0.9977,-0.9976,-0.9958,-0.9957,-0.9956,-0.9941,-0.9946,-0.9931,-0.9931,-0.994,-0.993,-0.993,-0.9918,-0.9916,-0.9912,-0.9902,-0.9901,-0.9902,-0.9902,-0.9902,-0.9901,0,0,0,0,0,0,0,-0.9978,-0.9976,-0.9958,-0.9958,-0.9956,-0.9952,-0.995,-0.9943,-0.993,-0.9939,-0.9938,-0.9936,-0.9917,-0.9913,-0.9912,-0.9901,-0.9902,-0.9902,-0.9901,-0.9901,-0.9889,-0.9889,0,0,0,0,0,0,-0.9981,-0.9977,-0.9959,-0.9958,-0.9967,-0.9952,-0.9949,-0.9946,-0.993,-0.9927,-0.9936,-0.9935,-0.9914,-0.9912,-0.9911,-0.9908,-0.9902,-0.9901,-0.99,-0.9889,-0.9889,-0.9889,0,0,0,0,0,0,-0.9982,-0.998,-0.996,-0.9967,-0.9964,-0.9952,-0.9948,-0.9945,-0.9942,-0.9928,-0.9925,-0.9935,-0.9914,-0.9912,-0.9906,-0.9907,-0.99,-0.99,-0.9889,-0.9889,-0.9889,-0.9903,0,0,0,0,0,0,-0.9983,-0.998,-0.998,-0.9967,-0.9964,-0.9956,-0.9948,-0.9945,-0.994,-0.9939,-0.9926,-0.9923,-0.9914,-0.9907,-0.9905,-0.9906,-0.9899,-0.9888,-0.9889,-0.9889,-0.9902,-0.9904,-0.9905,0,0,0,0,0,-0.9984,-0.9984,-0.998,-0.9978,-0.9964,-0.9956,-0.9954,-0.9944,-0.9941,-0.994,-0.9931,-0.9924,-0.9907,-0.9906,-0.9904,-0.9905,-0.9888,-0.9889,-0.9889,-0.9902,-0.9903,-0.9905,0,0,0,0,0,0,-0.9996,-0.9982,-0.9978,-0.9974,-0.9966,-0.9954,-0.9952,-0.9946,-0.9939,-0.9938,-0.9925,-0.9922,-0.9917,-0.991,-0.9909,-0.9903,-0.9897,-0.9897,-0.9907,-0.9909,-0.991,-0.9912,-0.9898,0,0,0,0,0,-0.9999,-0.9994,-0.9982,-0.998,-0.9976,-0.9965,-0.9961,-0.9955,-0.9946,-0.9942,-0.9933,-0.9924,-0.9917,-0.9912,-0.9905,-0.9901,-0.9898,-0.9901,-0.9902,-0.9903,-0.9903,-0.9901,-0.9902,-0.989,-0.989,-0.989,0,0,-1.0003,-0.9995,-0.9993,-0.9982,-0.9976,-0.9971,-0.9962,-0.9958,-0.9954,-0.9941,-0.9935,-0.9928,-0.9917,-0.9913,-0.991,-0.9907,-0.9905,-0.9903,-0.9904,-0.9904,-0.9901,-0.9902,-0.9903,-0.9891,-0.9891,-0.9891,0,0,-1.0009,-1.0003,-1.0001,-0.9995,-0.9985,-0.9978,-0.9977,-0.9965,-0.996,-0.9954,-0.9945,-0.994,-0.9928,-0.9921,-0.9916,-0.992,-0.9913,-0.9918,-0.9924,-0.9922,-0.9923,-0.9924,-0.9925,-0.9926,-0.9918,-0.9918,-0.9918,0,-1.0016,-1.0009,-1.0,-0.9996,-0.9992,-0.9981,-0.9979,-0.9973,-0.9961,-0.9958,-0.9955,-0.994,-0.9932,-0.9925,-0.9927,-0.9923,-0.9921,-0.9919,-0.9924,-0.9924,-0.9925,-0.9926,-0.9927,-0.9919,-0.9919,-0.9918,-0.9918,0,-1.0018,-1.0014,-1.0013,-1.0003,-0.9998,-0.9995,-0.9985,-0.9981,-0.9975,-0.9968,-0.9962,-0.9952,-0.9943,-0.9941,-0.9934,-0.9933,-0.9932,-0.9926,-0.992,-0.9927,-0.9928,-0.9928,-0.992,-0.9919,-0.9919,-0.9919,0,0,-1.0031,-1.0017,-1.0017,-1.0012,-1.0001,-0.9997,-0.9993,-0.9985,-0.9983,-0.9975,-0.9971,-0.9962,-0.9957,-0.9951,-0.9943,-0.9942,-0.9946,-0.9936,-0.9936,-0.9939,-0.9945,-0.9949,-0.995,-0.9941,-0.9941,-0.9941,-0.9946,0,-1.0035,-1.0029,-1.0021,-1.0017,-1.0013,-1.0003,-1.0,-0.9992,-0.9986,-0.998,-0.9973,-0.9966,-0.996,-0.9957,-0.9955,-0.9946,-0.9947,-0.9946,-0.9937,-0.9937,-0.994,-0.995,-0.9954,-0.9959,-0.9946,-0.9946,-0.9946,0,-1.004,-1.0034,-1.003,-1.002,-1.0018,-1.0015,-1.0007,-1.0003,-0.9994,-0.9989,-0.9983,-0.9975,-0.997,-0.9965,-0.9958,-0.9957,-0.9953,-0.9949,-0.9949,-0.9947,-0.9942,-0.9949,-0.996,-0.9961,-0.9947,-0.9947,-0.9947,0,-1.005,-1.0041,-1.0037,-1.0034,-1.0022,-1.002,-1.0015,-1.0006,-1.0002,-0.9995,-0.9992,-0.9984,-0.998,-0.9974,-0.9964,-0.9961,-0.9958,-0.9952,-0.9953,-0.9954,-0.9953,-0.9953,-0.9963,-0.995,-0.995,-0.995,-0.995,0,-1.0056,-1.0054,-1.0042,-1.0039,-1.0037,-1.0027,-1.0025,-1.0018,-1.0011,-1.0007,-0.9998,-0.9994,-0.9982,-0.9976,-0.9969,-0.9964,-0.9962,-0.9957,-0.9955,-0.9958,-0.9959,-0.9955,-0.9955,-0.9951,-0.9951,-0.995,-0.995,0,-1.0066,-1.0058,-1.0054,-1.0043,-1.0041,-1.0039,-1.003,-1.0027,-1.002,-1.0015,-1.0014,-1.0003,-0.9996,-0.9986,-0.9976,-0.9971,-0.9967,-0.9964,-0.997,-0.9969,-0.9971,-0.9971,-0.998,-0.998,-0.9967,-0.9967,-0.9967,0,-1.0071,-1.0069,-1.0059,-1.0056,-1.0051,-1.0047,-1.0043,-1.0033,-1.003,-1.002,-1.0018,-1.0011,-1.0005,-0.9995,-0.9985,-0.9978,-0.9974,-0.9978,-0.9973,-0.9976,-0.9974,-0.9975,-0.9974,-0.9979,-0.9979,-0.9979,-0.9979,0,-1.0079,-1.0076,-1.0071,-1.0065,-1.0061,-1.0055,-1.0049,-1.0047,-1.0036,-1.0032,-1.0026,-1.0021,-1.0012,-1.0004,-0.9996,-0.9989,-0.9982,-0.9981,-0.9981,-0.9984,-0.9988,-0.9986,-0.9973,-0.9981,-0.998,-0.998,-0.998,-0.998,-1.0087,-1.0085,-1.0078,-1.0073,-1.0068,-1.0062,-1.006,-1.0053,-1.0048,-1.004,-1.0034,-1.0028,-1.002,-1.0007,-1.0002,-0.9996,-0.9993,-0.9993,-0.9993,-0.9993,-0.9994,-0.9989,-0.9995,-0.9995,-0.9995,-0.9995,-0.9995,0,-1.0095,-1.009,-1.0086,-1.0078,-1.0074,-1.0069,-1.0062,-1.0059,-1.0054,-1.0047,-1.0042,-1.0035,-1.0028,-1.0018,-1.0011,-1.0008,-1.0005,-1.0007,-1.0007,-1.0005,-0.9998,-0.9999,-1.001,-1.001,-1.001,-1.001,-1.001,-1.001,-1.0099,-1.0096,-1.0092,-1.0086,-1.008,-1.0075,-1.0072,-1.0067,-1.0061,-1.0054,-1.0049,-1.0043,-1.0035,-1.0027,-1.002,-1.0018,-1.0015,-1.0018,-1.0014,-1.0007,-1.0006,-1.0005,-1.0005,-1.0018,-1.0018,-1.0023,-1.0023,-1.0023]},{"header":{"parameterUnit":"m.s-1","parameterCategory":1,"la1":30.2991,"la2":30.254,"lo1":-89.0895,"lo2":-89.0444,"dy":0.0017,"dx":0.0017,"nx":28,"ny":28,"refTime":"2023-10-13T21:00:00:Z","depth":0,"parameterNumber":3,"parameterNumberName":"V-component_of_WINDS"},"data":[0,0,0,0,0,0,0,0,0,0,0,0,0,0,0,0,0,0,0,0,0,0,0,0,0,0,0,0,0,0,0,0,0,0,0,0,0,0,0,0,0,0,0,0,0,0,0,0,0,0,0,0,0,0,0,0,0,0,-2.1563,-2.1564,0,-2.1642,-2.1643,-2.1644,-2.1649,-2.1648,-2.1647,-2.1647,-2.1719,-2.1722,-2.1724,0,0,0,0,0,0,0,0,0,0,0,0,0,-2.1411,-2.1413,-2.1563,-2.1564,-2.1565,-2.1642,-2.1643,-2.1644,-2.1649,-2.1648,-2.1647,-2.1646,-2.1718,-2.1721,-2.1724,0,0,0,0,0,0,0,0,0,0,0,0,0,-2.1482,-2.1414,-2.1563,-2.1577,-2.1579,-2.1642,-2.1643,-2.1644,-2.165,-2.1648,-2.1647,-2.1646,-2.1717,-2.1721,-2.1725,-2.1776,0,0,-2.1737,-2.1739,0,0,0,0,0,0,0,0,-2.1478,-2.1487,-2.1574,-2.1576,-2.1579,-2.1635,-2.1616,-2.1688,-2.165,-2.1623,-2.1647,-2.1645,-2.1691,-2.1697,-2.1715,-2.1779,-2.1782,-2.1738,-2.174,-2.1742,-2.1743,0,0,0,0,0,0,0,-2.1473,-2.1484,-2.1594,-2.1575,-2.1578,-2.1577,-2.1586,-2.1629,-2.1663,-2.1625,-2.1626,-2.1635,-2.1692,-2.1711,-2.1716,-2.1783,-2.1738,-2.1741,-2.1744,-2.1745,-2.1894,-2.1895,0,0,0,0,0,0,-2.1466,-2.148,-2.1591,-2.1596,-2.1524,-2.1581,-2.1591,-2.1618,-2.1663,-2.1668,-2.1636,-2.1635,-2.1704,-2.1712,-2.1719,-2.1782,-2.1742,-2.1746,-2.1748,-2.1892,-2.1894,-2.1896,0,0,0,0,0,0,-2.1463,-2.1476,-2.1588,-2.1538,-2.1553,-2.1585,-2.1615,-2.162,-2.1639,-2.1671,-2.1676,-2.1649,-2.1704,-2.1713,-2.1762,-2.1785,-2.1748,-2.1751,-2.1891,-2.1893,-2.1895,-2.1908,0,0,0,0,0,0,-2.1458,-2.1475,-2.1496,-2.1539,-2.1555,-2.1632,-2.1617,-2.1623,-2.1647,-2.1646,-2.1685,-2.169,-2.1703,-2.1756,-2.1766,-2.179,-2.1754,-2.1889,-2.1892,-2.1894,-2.1906,-2.191,-2.1915,0,0,0,0,0,-2.1453,-2.1494,-2.1497,-2.151,-2.1583,-2.1634,-2.1643,-2.166,-2.1648,-2.1669,-2.169,-2.1689,-2.1781,-2.1761,-2.1773,-2.1797,-2.1887,-2.1891,-2.1894,-2.1904,-2.191,-2.1914,0,0,0,0,0,0,-2.1449,-2.15,-2.1503,-2.156,-2.1593,-2.1635,-2.1661,-2.1665,-2.1699,-2.1697,-2.1714,-2.1723,-2.1771,-2.1789,-2.1767,-2.1849,-2.1833,-2.1838,-2.1836,-2.1842,-2.1846,-2.184,-2.1758,0,0,0,0,0,-2.1455,-2.1495,-2.1536,-2.1582,-2.1599,-2.1627,-2.165,-2.1661,-2.1694,-2.1707,-2.1732,-2.1762,-2.1798,-2.1821,-2.1855,-2.1909,-2.1917,-2.1931,-2.1936,-2.1939,-2.1944,-2.1974,-2.1981,-2.1907,-2.1907,-2.1907,0,0,-2.1467,-2.15,-2.1524,-2.1583,-2.1609,-2.1648,-2.1639,-2.1679,-2.1708,-2.1712,-2.1761,-2.178,-2.1815,-2.1867,-2.1891,-2.1883,-2.1966,-2.1943,-2.1946,-2.1949,-2.1978,-2.1985,-2.1991,-2.1909,-2.1909,-2.1908,0,0,-2.151,-2.1539,-2.1582,-2.161,-2.1652,-2.1671,-2.1681,-2.1723,-2.1737,-2.1787,-2.1791,-2.1824,-2.1885,-2.191,-2.1931,-2.1986,-2.1986,-2.1997,-2.2019,-2.2048,-2.2054,-2.2059,-2.2079,-2.2086,-2.2001,-2.2001,-2.2001,0,-2.1519,-2.1581,-2.1602,-2.1644,-2.167,-2.168,-2.1722,-2.1747,-2.1796,-2.1813,-2.1804,-2.1883,-2.1907,-2.1965,-2.1979,-2.1995,-2.2007,-2.1992,-2.2052,-2.2057,-2.2063,-2.2081,-2.2089,-2.2002,-2.2002,-2.2002,-2.2002,0,-2.159,-2.1632,-2.1661,-2.1713,-2.1742,-2.1784,-2.181,-2.1836,-2.1845,-2.1864,-2.1915,-2.1944,-2.1986,-2.2001,-2.2008,-2.206,-2.2054,-2.2049,-2.2032,-2.207,-2.2088,-2.2096,-2.2004,-2.2003,-2.2003,-2.2003,0,0,-2.163,-2.1696,-2.1706,-2.1731,-2.1779,-2.1811,-2.1853,-2.1897,-2.1919,-2.1953,-2.1988,-2.2041,-2.2037,-2.2061,-2.2071,-2.2097,-2.2139,-2.2088,-2.2089,-2.2096,-2.2199,-2.2203,-2.2211,-2.214,-2.2141,-2.2143,-2.2196,0,-2.1678,-2.1756,-2.1778,-2.1843,-2.1883,-2.1894,-2.193,-2.1962,-2.1982,-2.2016,-2.2037,-2.2075,-2.2066,-2.2081,-2.2107,-2.2128,-2.216,-2.2125,-2.2171,-2.2172,-2.2162,-2.222,-2.2224,-2.2273,-2.2203,-2.2204,-2.2205,0,-2.1743,-2.1784,-2.1854,-2.19,-2.1917,-2.195,-2.1992,-2.2026,-2.2063,-2.2075,-2.2103,-2.2112,-2.2154,-2.2137,-2.2195,-2.2171,-2.2191,-2.2205,-2.2207,-2.2211,-2.219,-2.2225,-2.2288,-2.2296,-2.2216,-2.2215,-2.2215,0,-2.1766,-2.1837,-2.1889,-2.1909,-2.1963,-2.1986,-2.2009,-2.2045,-2.2071,-2.2107,-2.2124,-2.2164,-2.2185,-2.2215,-2.2234,-2.2219,-2.2291,-2.2274,-2.2301,-2.2301,-2.2315,-2.2313,-2.2381,-2.2328,-2.2328,-2.2328,-2.2328,0,-2.1817,-2.1859,-2.19,-2.1932,-2.198,-2.2004,-2.205,-2.2073,-2.2105,-2.214,-2.2151,-2.2183,-2.2206,-2.2241,-2.2255,-2.2301,-2.2311,-2.2321,-2.2324,-2.232,-2.2319,-2.2333,-2.2329,-2.233,-2.2329,-2.2329,-2.2329,0,-2.1849,-2.1879,-2.1936,-2.1984,-2.1997,-2.203,-2.207,-2.21,-2.2121,-2.2166,-2.2177,-2.2209,-2.2251,-2.2273,-2.2324,-2.2334,-2.2386,-2.2387,-2.2374,-2.2376,-2.2401,-2.2399,-2.248,-2.2492,-2.2431,-2.2432,-2.2432,0,-2.188,-2.1914,-2.1967,-2.1993,-2.2017,-2.2058,-2.2086,-2.2111,-2.2138,-2.2184,-2.2209,-2.2252,-2.2288,-2.2354,-2.238,-2.2419,-2.2421,-2.2447,-2.2427,-2.2422,-2.2422,-2.2419,-2.2423,-2.245,-2.2451,-2.2451,-2.2452,0,-2.1931,-2.1944,-2.1985,-2.2032,-2.2066,-2.2103,-2.2139,-2.2159,-2.2189,-2.2219,-2.2264,-2.2293,-2.2347,-2.2389,-2.2431,-2.2452,-2.2457,-2.2459,-2.2467,-2.2462,-2.2454,-2.2459,-2.2384,-2.2456,-2.2456,-2.2455,-2.2455,-2.2455,-2.1963,-2.1994,-2.2037,-2.2083,-2.2114,-2.2148,-2.218,-2.2207,-2.2246,-2.2294,-2.2306,-2.2353,-2.239,-2.2447,-2.247,-2.2505,-2.25,-2.2512,-2.2515,-2.2517,-2.2518,-2.2449,-2.2513,-2.2513,-2.2513,-2.2513,-2.2513,0,-2.2014,-2.2044,-2.2086,-2.2139,-2.2174,-2.218,-2.2221,-2.2249,-2.2292,-2.2327,-2.2364,-2.2416,-2.2457,-2.2488,-2.253,-2.2553,-2.2556,-2.2563,-2.2561,-2.2566,-2.2521,-2.251,-2.256,-2.256,-2.256,-2.256,-2.256,-2.256,-2.2045,-2.2099,-2.2118,-2.2187,-2.2215,-2.2265,-2.2288,-2.2319,-2.2348,-2.2407,-2.2443,-2.2464,-2.2497,-2.2542,-2.258,-2.2588,-2.2603,-2.261,-2.2618,-2.2574,-2.2569,-2.2564,-2.2554,-2.2613,-2.2613,-2.266,-2.2661,-2.2661]}]]